Laurinburg-Maxton, NC

3:11 PM EDT on June 25, 2017 (GMT -0400)
Laurinburg-Maxton

Weather History for KMEB - October, 2013

Change the Weather History Date:

Tuesday, October 8, 2013

  Actual Average (KHFF) Record (KHFF)
Temperature  
Mean Temperature 58 °F -  
Max Temperature 64 °F 72 °F 88 °F (2014)
Min Temperature 53 °F 53 °F 45 °F (2010)
Degree Days  
Heating Degree Days 6    
Growing Degree Days 8 (Base 50)    
Moisture  
Dew Point 53 °F    
Average Humidity 84    
Maximum Humidity 100    
Minimum Humidity 64    
Precipitation  
Precipitation 0.25 in - - ()
Sea Level Pressure  
Sea Level Pressure 30.10 in    
Wind  
Wind Speed 13 mph (NNE)    
Max Wind Speed 21 mph    
Max Gust Speed 34 mph    
Visibility 9 miles    
Events Rain    
Averages and records for this station are not official NWS values.
T = Trace of Precipitation, MM = Missing Value Source: NWS Daily Summary

Daily Weather History Graph

Daily Weather History Graph

Search for Another Location

Airport or City:

Trip Planner

Search our weather history database for the weather conditions in past years. The results will help you decide how hot, cold, wet, or windy it might be!

Date:

Astronomy

Oct. 08, 2013 Rise Set
Actual Time 7:17 AM EDT 6:51 PM EDT
Civil Twilight 6:52 AM EDT 7:16 PM EDT
Nautical Twilight 6:23 AM EDT 7:46 PM EDT
Astronomical Twilight 5:53 AM EDT 8:15 PM EDT
Moon 11:01 AM EDT (10/8) 9:35 PM EDT (10/8)
Length of Visible Light 12h 24m
Length of Day
11h 33m
Waxing Crescent, 16% of the Moon is Illuminated
Oct 8
Waxing Crescent
Oct 11
First Quarter
Oct 18
Full
Oct 26
Last Quarter
Nov 3
New

Hourly Weather History & Observations

Time (EDT) Temp. Dew Point Humidity Pressure Visibility Wind Dir Wind Speed Gust Speed Precip Events Conditions
12:52 AM 64.0 °F 61.0 °F 90% 29.96 in 10.0 mi NNE 11.5 mph - N/A   Overcast
1:52 AM 63.0 °F 59.0 °F 87% 29.98 in 10.0 mi NNE 6.9 mph - N/A   Mostly Cloudy
2:52 AM 64.0 °F 57.9 °F 80% 29.98 in 10.0 mi NNE 13.8 mph - N/A   Overcast
3:14 AM 62.6 °F 57.2 °F 82% 29.97 in 10.0 mi NNE 11.5 mph - N/A   Overcast
3:35 AM 62.6 °F 55.4 °F 77% 29.97 in 10.0 mi NNE 11.5 mph 21.9 mph N/A   Mostly Cloudy
3:52 AM 63.0 °F 55.9 °F 78% 29.96 in 10.0 mi NNE 12.7 mph - N/A   Overcast
4:52 AM 63.0 °F 55.9 °F 78% 29.98 in 10.0 mi NE 15.0 mph 23.0 mph N/A   Overcast
5:52 AM 61.0 °F 54.0 °F 78% 30.03 in 10.0 mi NE 20.7 mph 34.5 mph 0.01 in   Overcast
6:52 AM 60.1 °F 48.0 °F 64% 30.05 in 10.0 mi NE 20.7 mph 25.3 mph N/A   Overcast
7:52 AM 60.1 °F 48.0 °F 64% 30.08 in 10.0 mi NE 15.0 mph - N/A   Overcast
8:52 AM 60.1 °F 48.0 °F 64% 30.10 in 10.0 mi NE 13.8 mph - N/A   Overcast
9:52 AM 60.1 °F 48.9 °F 67% 30.12 in 10.0 mi NE 18.4 mph 31.1 mph N/A   Overcast
10:52 AM 59.0 °F 50.0 °F 72% 30.14 in 10.0 mi NE 20.7 mph 27.6 mph N/A   Overcast
11:52 AM 59.0 °F 51.1 °F 75% 30.14 in 10.0 mi NE 19.6 mph 24.2 mph N/A   Overcast
12:48 PM 57.2 °F 51.8 °F 82% 30.14 in 10.0 mi NE 11.5 mph 21.9 mph N/A   Overcast
12:52 PM 57.9 °F 51.1 °F 78% 30.14 in 10.0 mi NNE 10.4 mph 21.9 mph N/A   Overcast
1:34 PM 57.2 °F 51.8 °F 82% 30.13 in 10.0 mi NNE 11.5 mph - N/A   Overcast
1:52 PM 57.9 °F 51.1 °F 78% 30.12 in 10.0 mi NNE 15.0 mph - N/A   Overcast
2:52 PM 57.9 °F 51.1 °F 78% 30.11 in 10.0 mi NNE 15.0 mph 24.2 mph N/A   Overcast
3:52 PM 55.0 °F 54.0 °F 96% 30.13 in 10.0 mi NNE 9.2 mph - 0.01 in   Overcast
4:24 PM 55.4 °F 53.6 °F 94% 30.14 in 6.0 mi NNE 15.0 mph - 0.01 in Rain Light Rain
4:52 PM 55.0 °F 54.0 °F 96% 30.14 in 9.0 mi NNE 15.0 mph - 0.01 in   Overcast
5:06 PM 55.4 °F 53.6 °F 94% 30.15 in 2.0 mi NNE 17.3 mph 21.9 mph 0.06 in Rain Heavy Rain
5:08 PM 55.4 °F 53.6 °F 94% 30.15 in 1.8 mi NNE 15.0 mph 21.9 mph 0.07 in Rain Heavy Rain
5:16 PM 53.6 °F 53.6 °F 100% 30.14 in 2.0 mi NNE 13.8 mph - 0.11 in Rain Rain
5:21 PM 55.4 °F 53.6 °F 94% 30.14 in 3.0 mi NNE 13.8 mph - 0.13 in Rain Rain
5:45 PM 55.4 °F 53.6 °F 94% 30.14 in 5.0 mi NE 16.1 mph 21.9 mph 0.19 in Rain Rain
5:52 PM 55.0 °F 54.0 °F 96% 30.14 in 5.0 mi NE 13.8 mph - 0.19 in Rain Light Rain
6:33 PM 55.4 °F 53.6 °F 94% 30.14 in 6.0 mi NNE 11.5 mph - 0.02 in Rain Light Rain
6:52 PM 55.0 °F 54.0 °F 96% 30.14 in 10.0 mi NNE 15.0 mph - 0.02 in   Overcast
7:52 PM 55.9 °F 53.1 °F 90% 30.16 in 10.0 mi NNE 13.8 mph - 0.01 in Rain Light Rain
8:52 PM 55.9 °F 53.1 °F 90% 30.17 in 10.0 mi NNE 10.4 mph - 0.00 in   Overcast
9:52 PM 55.9 °F 52.0 °F 87% 30.16 in 10.0 mi NNE 11.5 mph - N/A   Overcast
10:52 PM 55.9 °F 51.1 °F 84% 30.16 in 10.0 mi NNE 12.7 mph - N/A   Overcast
11:49 PM 57.2 °F 51.8 °F 82% 30.15 in 10.0 mi NNE 13.8 mph - N/A   Overcast
11:52 PM 57.0 °F 51.1 °F 81% 30.15 in 10.0 mi NNE 12.7 mph - N/A   Overcast